sat.trackr.live / text

‹ back to catalog

STARLINK-1609

NORAD 47621 · 2021-012B

PAYLOAD ACTIVE UNKNOWN

§ Identity

Operator
Country
US
Launch date
2021-02-16
Launch site
AFETR
Launch vehicle
Mass (kg)
RCS (m²)

Purposes: comms

External: N2YO · Heavens-Above · Gunter

§ Orbital elements

Epoch: 2026-05-25T04:38:19.531104Z

Period
93.31 min
Inclination
53.1583°
Eccentricity
0.0004974
Mean motion
15.43300474 rev/d
Perigee alt
433.0 km
Apogee alt
439.8 km
Semi-major
6,814.5 km
B*
1.4687e-3
RAAN
65.4092°
Arg perigee
92.3952°
Mean anomaly
267.7624°
Rev number
29,186

§ Raw data

STARLINK-16091 47621U 21012B   26145.19328161  .00066590  00000+0  14687-2 0  99982 47621  53.1583  65.4092 0004974  92.3952 267.7624 15.43300474291868

JSON: /api/v1/satellites/47621 · /tle

For live sub-satellite position, see the globe view (requires WebGL).

§ Visibility from observer

Set your observer location to see the next 7 days of passes ≥ 10°. The values pass through the URL so the page stays shareable.

No JS? Fill the form by hand. The geolocation button needs JavaScript.